Regional Weather Roundup
Issued by NWS

Home | Current Version | Previous Version | Graphics & Text | Print | Product List | Glossary On
Versions: 1 2 3 4 5 6 7 8 9 10 11 12 13 14 15 16 17 18 19 20 21 22 23 24 25 26 27 28 29 30 31 32 33 34 35 36 37 38 39 40 41 42 43 44 45 46 47 48 49 50
000
ASUS43 KFSD 012010
RWRSD

WEATHER ROUNDUP FOR SOUTH DAKOTA
NATIONAL WEATHER SERVICE SIOUX FALLS SD
300 PM CDT WED APR 01 2015

NOTE: "FAIR" INDICATES FEW OR NO CLOUDS BELOW 12,000 FEET WITH NO
SIGNIFICANT WEATHER AND/OR OBSTRUCTIONS TO VISIBILITY.


SDZ001>005-009-010-012>017-012100-
NORTHWEST AND NORTH CENTRAL SOUTH DAKOTA

CITY           SKY/WX    TMP DP  RH WIND       PRES   REMARKS
BUFFALO          N/A     56  16  20 W41G47    29.66S
FAITH            N/A     61  22  22 NW30G41   29.67R
MOBRIDGE       MOSUNNY   65  29  25 NW24G36   29.57R
$$

SDZ012>016-024>037-041>051-057-063-072>074-012100-
SOUTHWEST AND SOUTH CENTRAL SOUTH DAKOTA

CITY           SKY/WX    TMP DP  RH WIND       PRES   REMARKS
RAPID CTY ARPT MOSUNNY   54  30  40 N37G48    29.71S
PIERRE         PTSUNNY   67  35  30 NW28G36   29.61R
CUSTER         PTSUNNY   55  29  36 W10G23    29.74R
ELLSWORTH AFB  MOSUNNY   53  30  41 N36G45    29.72R
PHILIP         MOSUNNY   66  25  21 NW26G35   29.67R
PINE RIDGE     MOSUNNY   65  36  34 NW13G20   29.71F
SPEARFISH      LGT RAIN  41  32  70 W24G31    29.83R
WINNER         FAIR      71  39  31 NW18G28   29.61R
$$

SDZ004>011-016>023-039-040-012100-
NORTHEAST SOUTH DAKOTA

CITY           SKY/WX    TMP DP  RH WIND       PRES   REMARKS
ABERDEEN       CLOUDY    68  41  37 NW23G33   29.50R
WATERTOWN      CLOUDY    72  40  31 W23G33    29.47S
BROOKINGS      CLOUDY    77  45  31 SW24G31   29.48F
SISSETON         N/A     72  35  25 NW23G36   29.43R
$$

SDZ017-020-022-023-036>040-048>070-012100-
SOUTHEAST SOUTH DAKOTA

CITY           SKY/WX    TMP DP  RH WIND       PRES   REMARKS
SIOUX FALLS    PTSUNNY   80  42  25 SW15G30   29.51F
HURON          CLOUDY    67  38  34 NW25G31   29.51R
CHAMBERLAIN    CLOUDY    62  39  42 NW20G26   29.57S
MITCHELL       CLOUDY    72  35  25 NW22      29.53R
YANKTON        CLOUDY    84  45  24 S26G36    29.50F
$$

ABBREVIATIONS USED IN REMARKS
   TC - TEMPERATURE IN CELSIUS
  WCI - WIND CHILL INDEX
   HX - HEAT INDEX
  VSB - VISIBILITY




USA.gov is the U.S. government's official web portal to all federal, state and local government web resources and services.